Find Starlink 11207

NORAD ID: 60933 Int'l Des: 2024-155 Owner: SPXS Country: US Constellation: starlink operational
LEOCIRCULAR

リアルタイム位置

3D地球を読み込み中...

Starlink 11207について

説明を読み込み中...

次回通過

Passes for default location (London). Set your location on the main map for personalized predictions.

高度履歴

Loading altitude history...

軌道要素

1 60933U 24155K 26127.88738416 .00007846 00000-0 69594-4 0 9993
2 60933 53.1598 49.1644 0001443 73.7252 286.3925 15.69696904 97703
Epoch: May 7, 2026 • Age: 7 hours

現在のステータス

高度 378.8 km
速度 7.68 km/s
衛星直下点 -52.07°S, 6.93°E
打ち上げ日 Aug 31, 2024
運用期間 1.6 years
タイプ internet

技術仕様

分類 Payload
質量 960.00 kg
乾燥質量 910.00 kg
総質量 960.00 kg
長さ 0.30 m
直径 4.10 m
スパン 29.00 m
形状 Box + pan
製造者 SPXS
バスタイプ Starlink V2MD
フェーズステータス In Orbit
所有者/国 SPXS/US

Most Searched